Weather History for LGKZ - October, 2013

Change the Weather History Date:

Wednesday, October 9, 2013

  Actual Average Record
Temperature  
Mean Temperature 55 °F -  
Max Temperature 60 °F - - ()
Min Temperature 50 °F - - ()
Degree Days  
Heating Degree Days 10    
Growing Degree Days 5 (Base 50)    
Moisture  
Dew Point 51 °F    
Average Humidity 87    
Maximum Humidity 94    
Minimum Humidity 67    
Precipitation  
Precipitation 0.00 in - - ()
Sea Level Pressure  
Sea Level Pressure 30.25 in    
Wind  
Wind Speed 1 mph ()    
Max Wind Speed 5 mph    
Max Gust Speed -    
Visibility 5.6 miles    
Events Rain    
T = Trace of Precipitation, MM = Missing Value Source: Averaged Metar Reports

Daily Weather History Graph

Daily Weather History Graph

Search for Another Location

Airport or City:

Trip Planner

Search our weather history database for the weather conditions in past years. The results will help you decide how hot, cold, wet, or windy it might be!

Date:

Astronomy

Oct. 09, 2013 Rise Set
Actual Time 7:37 AM EEST 7:02 PM EEST
Civil Twilight 7:09 AM EEST 7:29 PM EEST
Nautical Twilight 6:38 AM EEST 8:00 PM EEST
Astronomical Twilight 6:06 AM EEST 8:32 PM EEST
Moon 12:14 PM EEST (10/9) 10:17 PM EEST (10/9)
Length of Visible Light 12h 19m
Length of Day
11h 25m
Waxing Crescent, 22% of the Moon is Illuminated
Oct 9
Waxing Crescent
Oct 12
First Quarter
Oct 19
Full
Oct 27
Last Quarter
Nov 3
New

Hourly Weather History & Observations

Time (EEST) Temp. Dew Point Humidity Pressure Visibility Wind Dir Wind Speed Gust Speed Precip Events Conditions
12:20 AM 55.4 °F 51.8 °F 88% 30.33 in - Variable 1.2 mph - N/A Rain Light Rain
12:50 AM 55.4 °F 51.8 °F 88% 30.33 in - Variable 1.2 mph - N/A Rain Light Rain
1:20 AM 53.6 °F 51.8 °F 94% 30.30 in - Variable 1.2 mph - N/A Rain Light Rain
1:50 AM 53.6 °F 51.8 °F 94% 30.30 in - Calm Calm - N/A Rain Light Rain
2:20 AM 53.6 °F 51.8 °F 94% 30.30 in - Calm Calm - N/A Rain Light Rain
2:50 AM 53.6 °F 51.8 °F 94% 30.30 in - Variable 1.2 mph - N/A   Unknown
3:20 AM 53.6 °F 51.8 °F 94% 30.30 in - Variable 1.2 mph - N/A Rain Light Rain
3:50 AM 53.6 °F 51.8 °F 94% 30.30 in - Calm Calm - N/A Rain Light Rain
4:20 AM 53.6 °F 51.8 °F 94% 30.27 in - Variable 1.2 mph - N/A Rain Light Rain
4:50 AM 53.6 °F 51.8 °F 94% 30.27 in - Variable 1.2 mph - N/A Rain Light Rain
5:20 AM 53.6 °F 51.8 °F 94% 30.27 in - Variable 3.5 mph - N/A Rain Light Rain
5:50 AM 53.6 °F 51.8 °F 94% 30.27 in - South 4.6 mph - N/A   Unknown
6:20 AM 53.6 °F 51.8 °F 94% 30.27 in - SSW 4.6 mph - N/A   Unknown
6:50 AM 53.6 °F 51.8 °F 94% 30.27 in - Variable 2.3 mph - N/A Rain Light Rain
7:20 AM 51.8 °F 50.0 °F 94% 30.27 in - Variable 1.2 mph - N/A   Unknown
7:50 AM 51.8 °F 50.0 °F 94% 30.27 in - Variable 2.3 mph - N/A   Unknown
10:50 AM 55.4 °F 51.8 °F 88% 30.27 in 4.3 mi Calm Calm - N/A   Mostly Cloudy
11:50 AM 55.4 °F 51.8 °F 88% 30.27 in 4.3 mi Calm Calm - N/A   Mostly Cloudy
12:50 PM 57.2 °F 50.0 °F 77% 30.27 in 5.0 mi Calm Calm - N/A   Mostly Cloudy
1:50 PM 57.2 °F 50.0 °F 77% 30.27 in 4.3 mi Calm Calm - N/A   Mostly Cloudy
2:50 PM 59.0 °F 48.2 °F 67% 30.24 in 6.2 mi Calm Calm - N/A   Mostly Cloudy
3:50 PM 60.8 °F 50.0 °F 68% 30.21 in 6.2 mi Calm Calm - N/A   Mostly Cloudy
4:50 PM 60.8 °F 50.0 °F 68% 30.21 in 6.2 mi East 4.6 mph - N/A   Mostly Cloudy
5:50 PM 59.0 °F 50.0 °F 72% 30.18 in 6.2 mi Calm Calm - N/A   Overcast
6:50 PM 57.2 °F 50.0 °F 77% 30.18 in 6.2 mi Calm Calm - N/A   Overcast
7:50 PM 55.4 °F 50.0 °F 82% 30.18 in 6.2 mi Calm Calm - N/A   Overcast
8:50 PM 55.4 °F 50.0 °F 82% 30.18 in 6.2 mi Calm Calm - N/A   Overcast
9:20 PM 55.4 °F 50.0 °F 82% 30.18 in - Variable 2.3 mph - N/A   Unknown
9:50 PM 53.6 °F 50.0 °F 88% 30.18 in - Variable 3.5 mph - N/A   Unknown
10:20 PM 51.8 °F 50.0 °F 94% 30.18 in - Variable 2.3 mph - N/A   Unknown
10:50 PM 51.8 °F 48.2 °F 88% 30.18 in - Variable 3.5 mph - N/A   Unknown
11:20 PM 50.0 °F 48.2 °F 94% 30.18 in - NNE 4.6 mph - N/A   Unknown
11:50 PM 50.0 °F 48.2 °F 94% 30.18 in - Variable 3.5 mph - N/A   Unknown